User: anonymous   Login
Location: Unspecified
(0.0000°N, 0.0000°E)
Time: 07:07:58
(UTC+00:00)
Language:

S-56A Canister/Altair - Orbit

View from above orbital plane
View from above orbital plane
View from above satellite
View from above satellite

Ground track
Ground track

The orbit data is extracted from the following two-line orbital elements,

1    82U 61004B   21292.40716079 -.00000106  00000-0 -57862-4 0  9992
2    82  38.8626 187.8602 1176599 283.3205  63.9143 12.26016246867825
Epoch (UTC): 19 October 2021 09:46:18
Eccentricity: 0.1176599
inclination: 38.8626°
perigee height: 631 km
apogee height: 2501 km
right ascension of ascending node: 187.8602°
argument of perigee: 283.3205°
revolutions per day: 12.26016246
mean anomaly at epoch: 63.9143°
orbit number at epoch: 86782

The dashed part of the orbit path shows where the satellite is in the earth's shadow,  

DLR